Location: Albany
(35.0170°S, 117.8920°E)
Time: 02:06:30
(UTC+08:00)

Explorer 7 - Pass Details

Date: 22 January 2021
Orbit: 484 x 677 km, 50.3° (Epoch: 01 March)

Event Time Altitude Azimuth Distance (km) Brightness Sun altitude
Rises 21:21:46 0° 224° (SW) 2,914 12.1 -21.0°
Reaches altitude 10° 21:25:14 10° 198° (SSW) 1,958 10.5 -21.5°
Maximum altitude 21:27:33 14° 167° (SSE) 1,686 9.7 -21.8°
Drops below altitude 10° 21:29:49 10° 135° (SE) 1,888 9.6 -22.1°
Enters shadow 21:30:36 - 127° (SE) 2,051 9.7 -22.2°
Sets 21:33:02 0° 108° (ESE) 2,733 - -22.6°
